Location: Mouguerre
(43.4679°N, 1.4182°W)
Time: 10:06:56
(UTC+00:00)

Daily predictions for brighter satellites

Satellite Brightness Start Highest point End
(mag) Time Altitude Azimuth Time Altitude Azimuth Time Altitude Azimuth
Cosmos 2279 Rocket 4.3 20:12:08 10° SSW 20:18:23 78° W 20:24:38 10° N
Cosmos 1812 Rocket 3.9 20:16:50 10° SSW 20:21:15 71° W 20:25:41 10° N
Terra 1.8 20:20:28 10° SSE 20:25:10 90° ESE 20:29:55 10° NNW
CENTAUR R/B 2.6 20:20:52 10° SW 20:26:12 78° NW 20:33:01 10° NE
Cosmos 44 Rocket 3.8 20:23:54 10° NNW 20:29:00 55° NE 20:33:56 10° SE
Meteor 1-27 Rocket 3.7 20:26:22 10° S 20:31:57 80° E 20:37:30 10° NNE
Cosmos 2208 Rocket 4.3 20:28:36 10° S 20:33:31 45° ESE 20:38:25 10° NNE
CZ-3 Stage 3 4.1 20:29:44 10° WSW 20:34:09 14° SW 20:36:54 10° SSW
BREEZE-M DEB (TANK) 4.3 20:33:12 10° WNW 20:35:53 23° N 20:37:41 10° NE
SKYMED 3 4.3 20:34:36 10° NNE 20:38:37 87° ESE 20:42:35 10° SSW
Aureole 2 4.0 20:36:19 10° SSW 20:39:16 79° WNW 20:42:06 10° NNE
SL-12 R/B (Aux Motor) 4.5 20:37:29 10° W 20:39:32 53° N 20:42:56 10° ENE
Cosmos 2082 4.1 20:36:35 10° SSW 20:42:10 69° WNW 20:47:47 10° NNE
MetOp-B 4.4 20:37:12 10° S 20:42:32 71° WSW 20:47:53 10° NNW
Meteor 1-11 Rocket 4.2 20:37:12 10° NNW 20:42:39 60° W 20:48:06 10° S
Cosmos 2227 4.3 20:37:44 10° S 20:43:18 56° ESE 20:48:56 10° NNE
YAOGAN 11 4.4 20:40:20 10° NNE 20:44:38 46° E 20:48:51 10° S
Meteor 2-20 Rocket 4.4 20:40:21 10° S 20:46:01 62° E 20:51:53 10° NNE
Cosmos 2263 Rocket 4.3 20:41:32 10° WSW 20:46:25 31° NW 20:51:20 10° N
CZ-4 R/B 3.1 20:43:11 10° SSW 20:46:27 28° W 20:49:46 10° NW
Ariane Rocket 4.2 20:44:08 11° ESE 20:48:15 29° ENE 20:52:33 10° N
Okean-O 2.7 20:44:50 10° SSE 20:49:09 67° ENE 20:53:30 10° N
Cosmos 2266 Rocket 4.1 20:43:28 10° N 20:49:43 86° W 20:56:02 10° S
Helios 1A Rocket 2.7 20:47:32 10° N 20:50:38 62° WNW 20:53:43 10° SSW
Spot 2 Rocket 3.5 20:45:55 10° SSE 20:50:58 82° ENE 20:56:04 10° NNW
NOSS 3-2 (A) 3.0 20:49:15 10° SSW 20:54:01 59° ESE 20:59:37 10° NE
CZ-4B R/B 3.6 20:48:48 10° S 20:54:12 61° WSW 20:59:33 10° NNW
Cosmos 1842 Rocket 3.7 20:51:55 10° S 20:56:17 59° E 21:00:38 10° NNE
Cosmos 1340 Rocket 3.9 20:54:22 10° NNE 20:57:36 26° ENE 20:59:47 16° ESE
Cosmos 773 Rocket 4.0 20:53:21 10° SSW 20:58:29 87° WNW 21:03:40 10° NNE
USA 215 4.5 20:52:47 10° E 20:58:38 37° NNE 21:04:30 10° NW
Cosmos 1603 4.3 20:53:39 10° NNW 20:59:11 47° ENE 21:03:42 15° SE
BREEZE-M DEB (TANK) 0.7 20:58:59 10° WNW 21:01:11 89° NNE 21:02:13 23° ESE
ADEOS 4.1 20:56:19 10° S 21:01:25 58° WSW 21:06:35 10° NNW
OAO 3 Rocket 4.1 20:59:34 10° WSW 21:03:27 28° S 21:05:58 17° SE
Cosmos 1570 Rocket 4.4 20:58:23 10° SSW 21:03:40 71° WNW 21:09:01 10° NNE
Cosmos 1844 Rocket 2.6 21:00:09 10° SSW 21:05:43 84° ESE 21:11:19 10° NNE
USA 245 3.7 21:03:10 17° SE 21:05:44 41° ENE 21:08:49 10° N
EXPRESS MD2 2.8 21:01:59 10° WNW 21:06:27 77° SSW 21:08:13 22° SE
SL-14 R/B 3.2 21:06:08 14° S 21:09:09 55° E 21:12:47 10° NNE
Meteor 2-10 Rocket 3.8 21:03:53 10° N 21:09:44 84° E 21:14:48 13° S
Cosmos 1238 Rocket 3.9 21:05:45 10° SSW 21:10:31 57° W 21:15:15 10° N
CZ-4C R/B 3.2 21:08:14 10° NW 21:15:27 76° WSW 21:22:42 16° SSE
Cosmos 1151 Rocket 3.7 21:14:27 20° SE 21:16:54 36° E 21:20:53 10° NNE
CZ-2C R/B 3.7 21:23:48 17° E 21:24:21 18° ENE 21:26:19 10° NNE
SL-24 R/B - RUBIN 2 4.1 21:21:53 10° SW 21:26:25 61° NW 21:30:46 10° NNE
Cosmos 1844 4.0 21:21:06 10° SSW 21:26:51 75° WNW 21:32:41 10° NNE
CZ-4B R/B 3.7 21:24:45 21° SE 21:28:04 60° ENE 21:33:10 10° N
Okean O Rocket 2.4 21:24:41 12° S 21:28:33 45° W 21:32:46 10° NNW
Cosmos 1953 4.3 21:26:56 10° NE 21:28:38 13° ENE 21:29:35 12° E
SL-16 R/B 4.5 21:25:10 10° WNW 21:28:48 18° W 21:32:27 10° SW
OAO 2 Rocket 4.2 21:28:42 10° SW 21:33:14 30° S 21:35:03 24° SE
In-Cosmos 22 4.2 21:28:00 10° S 21:33:45 87° E 21:39:33 10° N
NOSS 3-2 (C) 3.3 21:31:30 14° S 21:35:27 45° ESE 21:40:48 10° NE
BlueWalker 3 4.1 21:36:22 10° W 21:38:01 13° SW 21:39:18 11° SSW
Cosmos 1943 4.3 21:36:32 10° NW 21:41:38 37° WSW 21:46:00 13° SSW
USA 186 3.2 21:41:05 16° SW 21:42:05 20° W 21:43:55 10° NW
Cosmos 1461 2.4 21:40:26 10° NNW 21:43:57 74° NE 21:45:06 39° SE
CZ-4B R/B 2.8 21:42:34 27° S 21:44:32 74° WSW 21:48:29 10° NNW
ATLAS 2AS CENTAUR R/B 4.2 21:44:53 10° WNW 21:50:14 25° WSW 21:55:36 10° SSW
Cosmos 1655 Rocket 4.5 21:45:52 10° NNW 21:52:05 59° W 21:57:17 15° SSW
Cosmos 2298 Rocket 4.4 21:47:48 10° NNW 21:53:00 57° WSW 21:56:10 23° S
Cosmos 2344 4.1 21:48:48 19° S 21:53:41 37° ESE 22:00:10 10° NE
Sich 1 3.7 21:50:50 10° NNW 21:54:58 49° W 21:57:32 21° SSW
Cosmos 1500 Rocket 3.4 21:50:39 10° N 21:55:00 79° E 21:56:47 34° SSE
Helios 1A 4.1 21:54:08 10° NE 21:57:21 23° E 21:57:27 23° E
Iridium 4 Rocket 3.7 21:55:05 28° SSE 21:57:49 58° E 22:02:51 10° N
Helios 1B rocket 4.5 21:57:41 11° ENE 21:58:32 11° ENE 21:59:40 10° NE
BREEZE-M R/B 4.1 21:57:27 30° SSE 21:59:00 37° SE 22:06:06 10° ENE
GP-B 3.0 21:55:15 10° N 21:59:38 71° E 22:01:23 35° SSE
Cosmos 1607 4.0 21:55:29 10° NNW 22:01:54 77° NE 22:05:32 28° SE
Cosmos 1758 4.3 22:04:03 10° NNW 22:07:28 36° W 22:09:09 23° SW
NOSS 2-3 (D) 3.0 22:07:04 31° SSW 22:08:44 77° ESE 22:12:28 10° NE
Cosmos 2285 Rocket 4.0 22:03:14 10° NNW 22:09:38 86° WSW 22:13:01 30° SSE
Cosmos 1538 Rocket 3.9 22:11:36 32° S 22:13:55 65° ESE 22:19:05 10° NNE
Milstar 3 Cent rocket 4.1 22:13:21 10° SW 22:13:38 11° SW 22:13:38 11° SW
Cosmos 1943 Rocket 3.4 22:16:33 23° ESE 22:17:05 24° ESE 22:21:28 10° NE
Cosmos 1386 Rocket 4.5 22:10:56 10° N 22:17:22 83° E 22:20:34 32° SSE
Iridium 45 4.2 22:18:34 64° ENE 22:18:34 64° ENE 22:21:27 10° N
Cosmos 1328 Rocket 3.8 22:24:40 45° SE 22:25:26 51° E 22:29:40 10° NNE
Ariane Rocket 4.1 22:24:12 21° SSW 22:26:58 37° W 22:31:40 10° NNW
Lacrosse 5 rocket 2.3 22:30:44 27° ENE 22:30:44 27° ENE 22:32:35 10° ENE
CZ-4B R/B 4.5 22:31:00 10° NNE 22:35:28 81° ESE 22:36:35 50° S
NOSS 2-3 (E) 3.9 22:33:45 17° WSW 22:36:21 51° NW 22:40:02 10° NNE
Cosmos 1666 Rocket 3.6 22:32:22 10° N 22:36:42 65° E 22:37:29 53° SE
Cosmos 1703 3.9 22:37:13 32° WSW 22:37:46 35° WNW 22:40:44 10° N
USA 215 3.2 22:37:29 29° SE 22:41:10 87° NE 22:47:44 10° NW
Cosmos 1743 Rocket 4.2 22:39:27 10° NNW 22:43:36 48° W 22:44:49 37° SW
GEOS 3 Rocket 4.4 22:45:16 25° ESE 22:48:06 49° NE 22:53:18 10° NNW
S3M 3.9 22:48:41 34° SSW 22:51:32 81° W 22:57:41 10° N
Meteor 1-22 Rocket 4.4 22:48:48 10° NNW 22:53:59 56° W 22:55:47 37° SSW
Cosmos 1515 Rocket 4.0 22:55:37 42° E 22:55:48 43° E 22:59:56 10° NNE
Meteor 1-15 Rocket 4.3 22:53:29 10° NNW 22:59:19 78° W 23:01:13 44° S
USA 59 Rocket 1.6 23:01:29 16° ENE 23:01:29 16° ENE 23:02:20 10° ENE
Spot 4 4.3 22:59:30 40° ESE 23:00:39 49° ENE 23:05:19 10° N
ARGOS Delta rocket 4.0 22:55:37 10° NNE 23:01:00 73° E 23:02:18 51° SSE
Cosmos 1833 Rocket 2.7 22:57:21 10° NNW 23:03:00 75° WSW 23:04:35 48° S
Cosmos 1953 2.9 23:00:23 10° NNW 23:03:43 38° W 23:03:47 38° W
Cosmos 883 Rocket 4.5 23:03:52 36° SSW 23:06:31 76° W 23:12:40 10° N
Cosmos 1709 Rocket 4.1 23:00:41 10° NNW 23:07:01 72° W 23:09:28 39° SSW
Meteor 1-16 Rocket 4.1 23:01:32 10° N 23:07:05 82° E 23:08:42 49° SSE
Cosmos 2082 Rocket 3.8 23:03:47 10° N 23:08:34 27° NE 23:11:52 16° E
Okean 3 4.3 23:09:18 34° E 23:09:18 34° E 23:12:38 10° NNE
Meteor 1-23 Rocket 4.2 23:07:55 44° SSW 23:09:48 82° W 23:15:24 10° N
Cosmos 2278 Rocket 2.4 23:09:54 45° SE 23:10:47 49° ESE 23:16:15 10° NE
Cosmos 1633 Rocket 3.3 23:10:12 10° NNW 23:14:30 58° W 23:15:02 53° SW
Cosmos 1680 Rocket 3.3 23:22:43 57° S 23:23:48 85° ESE 23:29:01 10° NNE
Cosmos 494 Rocket 3.9 23:24:39 59° SSE 23:25:33 74° ESE 23:30:48 10° NNE
Cosmos 1400 Rocket 3.2 23:22:13 10° N 23:25:30 47° ENE 23:25:30 47° ENE
Cosmos 1624 Rocket 4.2 23:20:38 10° NNW 23:25:54 64° ENE 23:27:15 47° SE
CZ-2C R/B 3.6 23:23:35 10° NNE 23:28:51 44° E 23:29:38 42° ESE
Helios 1B rocket 2.9 23:31:35 43° WNW 23:31:35 43° WNW 23:34:23 10° NNW
Helios 1A 4.5 23:28:37 10° N 23:31:58 27° WNW 23:33:08 23° W
Meteor 1-12 Rocket 4.2 23:26:33 10° N 23:32:15 87° W 23:33:43 53° S
Cosmos 2056 Rocket 3.4 23:27:32 10° NNW 23:32:40 76° ENE 23:33:39 57° SE
ARIANE 5 R/B 2.5 23:36:34 70° SW 23:36:53 74° WSW 23:41:21 10° NNW
USA 238 DEB 3.4 23:36:16 40° SW 23:38:41 89° ESE 23:45:22 10° NE
USA 238 3.4 23:36:31 40° SSW 23:38:54 88° SE 23:45:35 10° NE
ACS3 Solar Sail 2.8 23:37:04 10° NE 23:41:57 28° E 23:43:11 26° ESE
Okean 2 4.0 23:42:05 41° W 23:42:10 41° WNW 23:45:50 10° N
Cosmos 1470 Rocket 4.3 23:42:10 10° NNW 23:46:20 40° W 23:46:41 39° WSW
BREEZE-M DEB (TANK) 4.4 23:33:52 10° W 23:48:23 54° N 23:52:47 10° ENE
ALOS 2 2.6 23:49:18 63° WSW 23:49:28 63° W 23:53:50 10° NNW
Cosmos 1441 Rocket 3.9 23:54:17 43° N 23:54:17 43° N 23:56:34 10° N
Cosmos 1933 Rocket 3.4 23:49:30 10° N 23:53:49 79° W 23:53:53 79° WSW
Cosmos 2369 Rocket 4.1 23:55:37 15° ESE 23:56:15 15° E 23:59:21 10° ENE
